Location: Newark
(50.1751°N, 5.6239°W)
Time: 13:49:43
(UTC+00:00)

ISS - Pass Details

Date: 27 September 2021
Orbit: 417 x 423 km, 51.6° (Epoch: 28 October)

Event Time Altitude Azimuth Distance (km) Brightness Sun altitude
Rises 21:21:01 0° 287° (WNW) 2,369 1.1 -29.6°
Reaches altitude 10° 21:23:12 10° 279° (W) 1,504 -0.3 -29.9°
Enters shadow 21:23:30 12° 277° (W) 1,389 -0.5 -29.9°
